FW8669 Weather Reports


time (UTC)temp
C
wind
direction
speed
KPH
gust
KPH
rain 1hr
cm
rain 24hr
cm
rain mn
cm
humidity
%
barometer
mb
20260504110716 16 220 11.3 20.9 0.00 0.51 0.51 63 1012.8
20260504110212 16 198 14.5 24.1 0.00 0.51 0.51 64 1012.9
20260504100131 16 257 11.3 17.7 0.00 0.48 0.48 69 1012.7
20260504081524 17 198 32.2 46.7 0.00 0.48 0.48 66 1011.5
20260504081019 16 233 27.4 46.7 0.00 0.48 0.48 70 1011.5
20260504080516 16 151 24.1 53.1 0.00 0.48 0.48 69 1011.6
20260504050328 14 202 32.2 53.1 0.00 0.48 0.48 76 1011.5
20260504045825 13 252 29.0 49.9 0.00 0.48 0.48 77 1011.3
20260504045320 13 222 38.6 51.5 0.00 0.48 0.48 78 1011.4
20260504044817 13 225 40.2 46.7 0.00 0.48 0.48 76 1011.4
20260504044315 13 229 48.3 53.1 0.00 0.48 0.48 77 1011.9
20260504043812 13 236 41.8 69.2 0.00 0.48 0.48 76 1011.6
20260504043309 13 196 32.2 46.7 0.13 0.48 0.48 82 1011.7
20260504042806 14 201 22.5 38.6 0.00 0.46 0.46 81 1011.6
20260504042304 13 223 11.3 33.8 0.00 0.46 0.46 80 1011.5
20260504041759 13 201 30.6 35.4 0.00 0.46 0.46 79 1011.4
20260504041255 12 239 24.1 33.8 0.00 0.46 0.46 82 1011.6
20260504040751 12 239 22.5 32.2 0.18 0.46 0.46 85 1011.5
20260504040249 12 235 14.5 35.4 0.48 0.46 0.46 87 1011.8
20260504035744 11 227 27.4 35.4 1.68 0.41 0.41 88 1012.3
20260504035242 12 208 17.7 27.4 1.80 0.38 0.38 88 1012.0
20260504034740 15 212 24.1 29.0 0.13 0.10 0.10 72 1012.0
20260504034237 15 263 24.1 29.0 0.00 0.08 0.08 69 1011.7
20260504033734 16 241 29.0 46.7 0.00 0.08 0.08 69 1011.5
20260504033231 16 221 25.7 38.6 0.00 0.08 0.08 66 1011.5
20260504032728 16 208 29.0 53.1 0.00 0.08 0.08 65 1011.7
20260504032225 16 222 29.0 54.7 0.00 0.08 0.08 62 1011.6
20260504031722 16 249 35.4 54.7 0.00 0.08 0.08 69 1011.8
20260504031220 15 181 48.3 74.0 0.00 0.08 0.08 69 1011.6
20260504030715 15 187 32.2 48.3 0.00 0.08 0.08 72 1011.5
20260504030213 15 206 38.6 49.9 0.00 0.08 0.08 67 1011.8
20260504025709 15 199 29.0 43.5 0.00 0.08 0.08 65 1011.8
20260504025206 15 198 32.2 59.5 0.00 0.08 0.08 64 1011.9
20260504024703 15 209 35.4 53.1 0.00 0.08 0.08 65 1011.7
20260504024159 15 217 24.1 43.5 0.00 0.08 0.08 72 1011.9
20260504023656 15 206 33.8 41.8 0.00 0.08 0.08 70 1011.6
20260504023152 15 212 51.5 56.3 0.00 0.08 0.08 70 1011.8
20260504022648 15 187 43.5 56.3 0.00 0.08 0.08 69 1011.5
20260504022144 15 217 40.2 64.4 0.00 0.08 0.08 69 1011.7
20260504021643 15 230 38.6 49.9 0.00 0.08 0.08 68 1012.1
20260504021139 15 239 45.1 53.1 0.00 0.08 0.08 68 1012.0
20260504020636 15 233 25.7 61.2 0.00 0.08 0.08 64 1011.9
20260504020132 15 208 29.0 48.3 0.00 0.08 0.08 61 1011.9
20260504015629 14 208 29.0 54.7 0.00 0.08 0.08 65 1012.0
20260504015125 14 219 24.1 43.5 0.00 0.08 0.08 69 1012.3
20260504014621 14 210 38.6 48.3 0.00 0.08 0.08 72 1012.2
20260504014118 14 235 17.7 46.7 0.00 0.08 0.08 73 1012.5
20260504013616 13 218 25.7 49.9 0.00 0.08 0.08 71 1012.3
20260504013113 12 168 25.7 46.7 0.18 0.08 0.08 80 1012.4
20260504012610 12 223 35.4 59.5 0.00 0.05 0.05 80 1012.4
20260504012108 12 241 25.7 43.5 0.13 0.05 0.05 78 1012.5
20260504011604 13 236 37.0 46.7 0.00 0.03 0.03 73 1012.6
20260504011100 15 242 43.5 67.6 0.00 0.03 0.03 65 1012.4
20260504010556 15 217 35.4 48.3 0.00 0.03 0.03 64 1012.0
20260504010052 15 207 33.8 54.7 0.00 0.03 0.03 66 1012.1
20260504005549 15 199 37.0 51.5 0.00 0.03 0.03 69 1012.1
20260504005047 16 227 33.8 62.8 0.00 0.03 0.03 65 1012.2
20260504004544 16 243 46.7 61.2 0.00 0.03 0.03 57 1012.0
20260504004041 16 230 24.1 43.5 0.00 0.03 0.03 61 1011.9
20260504003537 16 228 41.8 56.3 0.00 0.03 0.03 62 1012.0
20260504003034 15 248 22.5 33.8 0.00 0.03 0.03 65 1012.2
20260504002531 15 231 24.1 41.8 0.00 0.03 0.03 64 1012.4
20260504002029 15 203 24.1 29.0 0.00 0.03 0.03 65 1012.2
20260504001526 15 238 25.7 40.2 0.00 0.03 0.03 65 1012.5
20260504001022 15 215 33.8 41.8 0.00 0.03 0.03 65 1012.5
20260504000520 16 243 29.0 62.8 0.00 0.03 0.03 66 1012.2
20260504000017 15 236 40.2 61.2 0.00 0.03 0.03 60 1012.2
20260503235515 15 221 35.4 53.1 0.00 0.03 0.03 65 1012.3
20260503235012 14 193 24.1 27.4 0.00 0.03 0.03 69 1012.3
20260503234509 13 237 22.5 25.7 0.00 0.03 0.03 73 1012.4
20260503234008 13 223 20.9 27.4 0.00 0.03 0.03 75 1012.7
20260503233503 13 239 11.3 27.4 0.00 0.03 0.03 75 1012.4
20260503232959 13 223 16.1 22.5 0.00 0.03 0.03 77 1013.0
20260503232457 13 231 20.9 25.7 0.00 0.03 0.03 77 1012.7
20260503231954 13 226 24.1 29.0 0.00 0.03 0.03 77 1013.0
20260503231452 12 232 20.9 33.8 0.18 0.03 0.03 75 1013.3
20260503230948 13 226 37.0 49.9 0.18 0.03 0.03 74 1013.6
20260503230445 15 214 19.3 24.1 0.00 0.00 0.00 63 1013.0
20260503225943 15 231 22.5 24.1 0.00 0.00 0.00 62 1013.0
20260503225439 15 208 16.1 29.0 0.00 0.00 0.00 64 1013.1
20260503224934 15 253 11.3 20.9 0.00 0.00 0.00 64 1013.0
20260503224432 15 222 17.7 24.1 0.00 0.00 0.00 64 1013.3
20260503223929 15 201 12.9 24.1 0.00 0.00 0.00 64 1013.4
20260503223427 15 237 12.9 20.9 0.00 0.00 0.00 64 1013.3
20260503222922 15 241 17.7 33.8 0.00 0.00 0.00 63 1013.4
20260503222421 15 254 17.7 29.0 0.00 0.00 0.00 63 1013.4
20260503221919 15 245 25.7 33.8 0.00 0.00 0.00 62 1013.7
20260503221417 15 247 14.5 29.0 0.00 0.00 0.00 62 1013.4
20260503220913 15 256 11.3 40.2 0.00 0.00 0.00 61 1013.5
20260503220410 14 236 32.2 46.7 0.00 0.00 0.00 66 1013.5
20260503215907 14 248 20.9 33.8 0.00 0.00 0.00 67 1013.7
20260503215404 13 226 14.5 24.1 0.00 0.00 0.00 66 1013.5
20260503214902 14 233 16.1 22.5 0.00 0.00 0.00 67 1013.3
20260503214359 14 231 17.7 27.4 0.00 0.00 0.00 66 1013.5
20260503213856 14 259 24.1 38.6 0.00 0.00 0.00 64 1013.6
20260503213354 16 240 32.2 48.3 0.00 0.00 0.00 59 1013.4
20260503212850 16 219 27.4 51.5 0.00 0.00 0.00 57 1013.6
20260503212348 16 209 14.5 29.0 0.00 0.00 0.00 62 1013.3
20260503211845 16 216 24.1 40.2 0.00 0.00 0.00 61 1013.1
20260503211342 16 229 35.4 41.8 0.00 0.00 0.00 63 1013.1
20260503210837 16 214 27.4 37.0 0.00 0.00 0.00 63 1013.4
20260503210335 15 229 22.5 27.4 0.00 0.00 0.00 65 1013.1
20260503205829 15 253 20.9 25.7 0.00 0.69 0.69 64 1013.5
20260503205326 16 223 16.1 29.0 0.00 0.69 0.69 63 1013.5
20260503204823 16 209 20.9 32.2 0.00 0.69 0.69 63 1013.3
20260503204321 16 204 29.0 35.4 0.00 0.69 0.69 63 1013.1
20260503203818 16 223 19.3 29.0 0.00 0.69 0.69 63 1013.4
20260503203315 16 212 22.5 38.6 0.00 0.69 0.69 62 1013.5
20260503202812 15 209 33.8 40.2 0.00 0.69 0.69 61 1013.5
20260503202310 16 233 25.7 37.0 0.00 0.69 0.69 60 1013.4
20260503201808 16 176 35.4 40.2 0.00 0.69 0.69 62 1013.5
20260503201304 15 241 32.2 40.2 0.00 0.69 0.69 60 1013.6
20260503200802 15 252 25.7 43.5 0.00 0.69 0.69 61 1013.7
20260503200257 16 210 22.5 40.2 0.00 0.69 0.69 62 1013.6
20260503195755 15 195 20.9 48.3 0.00 0.69 0.69 62 1013.3
20260503195251 15 244 30.6 35.4 0.00 0.69 0.69 62 1013.6
20260503194749 16 211 30.6 41.8 0.00 0.69 0.69 62 1013.8
20260503194245 15 209 30.6 35.4 0.00 0.69 0.69 60 1013.7
20260503193741 16 217 19.3 38.6 0.00 0.69 0.69 59 1013.6
20260503193237 16 234 29.0 46.7 0.00 0.69 0.69 60 1013.7
20260503192733 16 232 29.0 43.5 0.00 0.69 0.69 57 1013.8
20260503192228 16 219 27.4 49.9 0.00 0.69 0.69 58 1013.8
20260503191725 16 213 24.1 32.2 0.00 0.69 0.69 60 1013.5
20260503191222 16 198 22.5 37.0 0.00 0.69 0.69 60 1013.5
20260503190719 16 222 32.2 46.7 0.00 0.69 0.69 59 1013.6
20260503190216 16 240 43.5 51.5 0.00 0.69 0.69 58 1013.4
20260503185713 16 213 14.5 38.6 0.00 0.69 0.69 61 1013.3
20260503185208 16 234 27.4 51.5 0.00 0.69 0.69 60 1013.3
20260503184703 16 194 24.1 35.4 0.00 0.69 0.69 61 1013.3
20260503184200 16 193 25.7 37.0 0.00 0.69 0.69 60 1013.4
20260503183656 16 240 30.6 38.6 0.00 0.69 0.69 60 1013.5
20260503183154 16 235 32.2 40.2 0.00 0.69 0.69 61 1013.3
20260503182652 16 223 29.0 43.5 0.00 0.69 0.69 60 1013.0
20260503182150 16 200 35.4 48.3 0.00 0.69 0.69 56 1012.8
20260503181646 16 221 32.2 41.8 0.00 0.69 0.69 57 1012.9
20260503181143 16 240 27.4 32.2 0.00 0.69 0.69 60 1012.8
20260503180640 16 241 25.7 43.5 0.00 0.69 0.69 58 1012.8
20260503180138 16 190 27.4 37.0 0.00 0.69 0.69 60 1012.8
20260503175635 16 245 19.3 41.8 0.00 0.69 0.69 60 1012.5
20260503175132 16 227 35.4 51.5 0.00 0.69 0.69 59 1012.5
20260503174628 16 233 37.0 41.8 0.00 0.69 0.69 59 1012.6
20260503174126 16 233 35.4 43.5 0.00 0.69 0.69 59 1012.5
20260503173620 16 221 22.5 37.0 0.00 0.69 0.69 60 1012.5
20260503173117 16 242 25.7 32.2 0.00 0.69 0.69 59 1012.4
20260503172614 16 228 30.6 37.0 0.00 0.69 0.69 60 1012.2
20260503172112 16 222 20.9 37.0 0.00 0.69 0.69 59 1012.3
20260503171608 16 252 24.1 41.8 0.00 0.69 0.69 60 1012.2
20260503171106 16 227 22.5 33.8 0.00 0.69 0.69 58 1012.3
20260503170602 16 254 29.0 41.8 0.00 0.69 0.69 59 1012.1
20260503150954 17 217 38.6 54.7 0.00 0.69 0.69 67 1011.4
20260503150451 17 236 24.1 40.2 0.00 0.69 0.69 68 1011.4
20260503131344 15 277 16.1 20.9 0.00 0.69 0.69 85 1011.7
20260503130841 15 248 8.0 16.1 0.00 0.69 0.69 86 1011.2
20260503130338 15 296 19.3 25.7 0.00 0.69 0.69 86 1011.4